Terminal Aerodrome Forecast
Issued by NWS

Current Version | Previous Version | Graphics & Text | Print | Product List | Glossary On
Versions: 1 2 3 4 5 6 7 8 9 10 11 12 13 14 15 16 17 18 19 20 21 22 23 24 25 26 27 28 29 30 31 32 33 34 35 36 37 38 39 40 41 42 43 44 45 46 47 48 49 50
000
FTUS41 KRNK 210734 AAA
TAFLWB
TAF AMD
KLWB 210734Z 2108/2206 01004KT P6SM OVC016
     FM211000 00000KT 4SM BR BKN009
     FM211400 VRB03KT 6SM BR SCT007 BKN015
     FM211600 14003KT P6SM -SHRA SCT025 BKN035
     FM220000 VRB03KT P6SM OVC035=

USA.gov is the U.S. government's official web portal to all federal, state and local government web resources and services.